KJ4UBX-13 Weather Reports


Display with metric or nautical units.
time (UTC)temp
F
wind
direction
speed
MPH
gust
MPH
rain 1hr
in
rain 24hr
in
rain mn
in
humidity
%
barometer
mb
20230203185256 68 0.0 0.0 0.00 0.00 0.00 40 1015.8
20230203184317 67 0.0 0.0 0.00 0.00 0.00 40 1016.0
20230203183341 68 0.0 0.0 0.00 0.00 0.00 41 1016.3
20230203182359 67 0.0 0.0 0.00 0.00 0.00 41 1016.4
20230203181421 67 0.0 0.0 0.00 0.00 0.00 41 1016.7
20230203180443 67 0.0 0.0 0.00 0.00 0.00 40 1017.0
20230203175503 67 0.0 0.0 0.00 0.00 0.00 41 1017.2
20230203174524 67 0.0 0.0 0.00 0.00 0.00 42 1017.4
20230203173546 67 0.0 0.0 0.00 0.00 0.00 42 1017.7
20230203172607 67 0.0 0.0 0.00 0.00 0.00 42 1018.0
20230203171630 67 0.0 0.0 0.00 0.00 0.00 43 1018.1
20230203170648 66 0.0 0.0 0.00 0.00 0.00 43 1018.3
20230203165708 65 0.0 0.0 0.00 0.00 0.00 44 1018.8
20230203164732 65 0.0 0.0 0.00 0.00 0.00 43 1018.9
20230203163757 65 0.0 0.0 0.00 0.00 0.00 42 1018.9
20230203163747 65 0.0 0.0 0.00 0.00 0.00 43 1018.9
20230203162806 65 0.0 0.0 0.00 0.00 0.00 42 1018.9
20230203161825 65 0.0 0.0 0.00 0.00 0.00 42 1018.9
20230203160850 65 0.0 0.0 0.00 0.00 0.00 42 1019.0
20230203155912 65 0.0 0.0 0.00 0.00 0.00 43 1019.0
20230203154931 65 0.0 0.0 0.00 0.00 0.00 44 1019.2
20230203153955 65 0.0 0.0 0.00 0.00 0.00 44 1019.1
20230203153015 65 0.0 0.0 0.00 0.00 0.00 46 1019.2
20230203152033 65 0.0 0.0 0.00 0.00 0.00 46 1019.4
20230203151054 64 0.0 0.0 0.00 0.00 0.00 46 1019.7
20230203150115 63 0.0 0.0 0.00 0.00 0.00 45 1019.9
20230203145135 63 0.0 0.0 0.00 0.00 0.00 45 1019.7
20230203144156 64 0.0 0.0 0.00 0.00 0.00 45 1019.7
20230203143215 64 0.0 0.0 0.00 0.00 0.00 45 1019.5
20230203142237 64 0.0 0.0 0.00 0.00 0.00 44 1019.3
20230203141259 64 0.0 0.0 0.00 0.00 0.00 46 1019.4
20230203140319 64 0.0 0.0 0.00 0.00 0.00 42 1019.3
20230203135343 65 0.0 0.0 0.00 0.00 0.00 43 1019.4
20230203134405 64 0.0 0.0 0.00 0.00 0.00 44 1019.3
20230203133425 64 0.0 0.0 0.00 0.00 0.00 44 1019.5
20230203132446 64 0.0 0.0 0.00 0.00 0.00 45 1019.8
20230203131507 63 0.0 0.0 0.00 0.00 0.00 45 1019.9
20230203130532 64 0.0 0.0 0.00 0.00 0.00 44 1019.6
20230203124608 64 0.0 0.0 0.00 0.00 0.00 43 1019.4
20230203123633 64 0.0 0.0 0.00 0.00 0.00 42 1019.3
20230203122652 64 0.0 0.0 0.00 0.00 0.00 42 1019.1
20230203121713 65 0.0 0.0 0.00 0.00 0.00 42 1019.0
20230203120734 64 0.0 0.0 0.00 0.00 0.00 43 1019.2
20230203115758 64 0.0 0.0 0.00 0.00 0.00 44 1019.2
20230203114818 63 0.0 0.0 0.00 0.00 0.00 44 1019.5
20230203113839 63 0.0 0.0 0.00 0.00 0.00 45 1019.7
20230203112859 63 0.0 0.0 0.00 0.00 0.00 45 1019.8
20230203111920 62 0.0 0.0 0.00 0.00 0.00 45 1020.1
20230203110939 63 0.0 0.0 0.00 0.00 0.00 45 1019.9
20230203110001 63 0.0 0.0 0.00 0.00 0.00 44 1019.7
20230203104044 63 0.0 0.0 0.00 0.00 0.00 44 1019.6
20230203103108 64 0.0 0.0 0.00 0.00 0.00 44 1019.6
20230203102128 64 0.0 0.0 0.00 0.00 0.00 44 1019.4
20230203101150 64 0.0 0.0 0.00 0.00 0.00 45 1019.6
20230203100210 64 0.0 0.0 0.00 0.00 0.00 45 1019.8
20230203095231 63 0.0 0.0 0.00 0.00 0.00 45 1019.9
20230203094252 63 0.0 0.0 0.00 0.00 0.00 46 1020.1
20230203093314 63 0.0 0.0 0.00 0.00 0.00 46 1020.1
20230203092333 62 0.0 0.0 0.00 0.00 0.00 46 1020.4
20230203091353 63 0.0 0.0 0.00 0.00 0.00 45 1020.3
20230203085435 64 0.0 0.0 0.00 0.00 0.00 43 1020.1
20230203084457 64 0.0 0.0 0.00 0.00 0.00 43 1020.0
20230203083518 65 0.0 0.0 0.00 0.00 0.00 43 1019.8
20230203082540 64 0.0 0.0 0.00 0.00 0.00 44 1019.9
20230203081601 64 0.0 0.0 0.00 0.00 0.00 44 1020.2
20230203080622 64 0.0 0.0 0.00 0.00 0.00 44 1020.4
20230203075642 63 0.0 0.0 0.00 0.00 0.00 45 1020.7
20230203074703 63 0.0 0.0 0.00 0.00 0.00 46 1020.9
20230203073724 63 0.0 0.0 0.00 0.00 0.00 45 1020.9
20230203072744 63 0.0 0.0 0.00 0.00 0.00 45 1021.0
20230203071808 64 0.0 0.0 0.00 0.00 0.00 44 1020.9
20230203070825 64 0.0 0.0 0.00 0.00 0.00 43 1020.8
20230203065847 64 0.0 0.0 0.00 0.00 0.00 43 1020.9
20230203064908 64 0.0 0.0 0.00 0.00 0.00 43 1021.0
20230203063929 64 0.0 0.0 0.00 0.00 0.00 43 1021.1
20230203062949 64 0.0 0.0 0.00 0.00 0.00 45 1021.2
20230203062008 64 0.0 0.0 0.00 0.00 0.00 46 1021.5
20230203061028 63 0.0 0.0 0.00 0.00 0.00 46 1021.8
20230203060049 63 0.0 0.0 0.00 0.00 0.00 46 1022.0
20230203055110 63 0.0 0.0 0.00 0.00 0.00 45 1021.9
20230203054133 63 0.0 0.0 0.00 0.00 0.00 45 1021.9
20230203053153 63 0.0 0.0 0.00 0.00 0.00 44 1021.6
20230203052213 64 0.0 0.0 0.00 0.00 0.00 44 1021.6
20230203051234 64 0.0 0.0 0.00 0.00 0.00 44 1021.4
20230203050255 64 0.0 0.0 0.00 0.00 0.00 44 1021.3
20230203045316 64 0.0 0.0 0.00 0.00 0.00 44 1021.3
20230203044335 65 0.0 0.0 0.00 0.00 0.00 44 1021.1
20230203043357 64 0.0 0.0 0.00 0.00 0.00 44 1021.3
20230203042417 64 0.0 0.0 0.00 0.00 0.00 45 1021.7
20230203041438 63 0.0 0.0 0.00 0.00 0.00 46 1021.9
20230203040457 63 0.0 0.0 0.00 0.00 0.00 46 1021.9
20230203035518 64 0.0 0.0 0.00 0.00 0.00 46 1021.8
20230203034538 64 0.0 0.0 0.00 0.00 0.00 45 1021.7
20230203033559 64 0.0 0.0 0.00 0.00 0.00 44 1021.5
20230203032621 64 0.0 0.0 0.00 0.00 0.00 44 1021.4
20230203031641 65 0.0 0.0 0.00 0.00 0.00 44 1021.2
20230203030704 65 0.0 0.0 0.00 0.00 0.00 44 1021.0
20230203024747 66 0.0 0.0 0.00 0.00 0.00 43 1020.5
20230203023807 66 0.0 0.0 0.00 0.00 0.00 42 1020.2
20230203022828 67 0.0 0.0 0.00 0.00 0.00 41 1020.1
20230203021848 66 0.0 0.0 0.00 0.00 0.00 41 1020.2
20230203020910 66 0.0 0.0 0.00 0.00 0.00 42 1020.0
20230203015932 66 0.0 0.0 0.00 0.00 0.00 43 1019.9
20230203014951 66 0.0 0.0 0.00 0.00 0.00 43 1019.9
20230203014011 66 0.0 0.0 0.00 0.00 0.00 43 1020.0
20230203013032 66 0.0 0.0 0.00 0.00 0.00 43 1019.9
20230203012054 66 0.0 0.0 0.00 0.00 0.00 43 1019.6
20230203011115 67 0.0 0.0 0.00 0.00 0.00 42 1019.3
20230203010137 67 0.0 0.0 0.00 0.00 0.00 41 1019.0
20230203005158 68 0.0 0.0 0.00 0.00 0.00 40 1018.3
20230203004218 69 0.0 0.0 0.00 0.00 0.00 40 1018.0
20230203003243 70 0.0 0.0 0.00 0.00 0.00 39 1017.4
20230203002305 71 0.0 0.0 0.00 0.00 0.00 37 1016.8
20230203001324 73 0.0 0.0 0.00 0.00 0.00 35 1016.1
20230203000346 73 0.0 0.0 0.00 0.00 0.00 35 1015.8
20230202235404 73 0.0 0.0 0.00 0.00 0.00 35 1015.4
20230202233445 74 0.0 0.0 0.00 0.00 0.00 34 1015.1
20230202232505 73 0.0 0.0 0.00 0.00 0.00 34 1015.0
20230202231526 73 0.0 0.0 0.00 0.00 0.00 34 1015.0
20230202230547 73 0.0 0.0 0.00 0.00 0.00 34 1014.9
20230202225607 73 0.0 0.0 0.00 0.00 0.00 34 1014.8
20230202222706 72 0.0 0.0 0.00 0.00 0.00 35 1015.0
20230202221727 72 0.0 0.0 0.00 0.00 0.00 35 1015.1
20230202215811 72 0.0 0.0 0.00 0.00 0.00 36 1015.1
20230202214829 71 0.0 0.0 0.00 0.00 0.00 37 1015.2
20230202213850 71 0.0 0.0 0.00 0.00 0.00 37 1015.4
20230202212910 70 0.0 0.0 0.00 0.00 0.00 38 1015.6
20230202210949 68 0.0 0.0 0.00 0.00 0.00 40 1016.3
20230202210011 68 0.0 0.0 0.00 0.00 0.00 40 1016.5
20230202205030 68 0.0 0.0 0.00 0.00 0.00 40 1016.6
20230202204052 68 0.0 0.0 0.00 0.00 0.00 40 1016.8
20230202203112 68 0.0 0.0 0.00 0.00 0.00 41 1016.8
20230202202132 68 0.0 0.0 0.00 0.00 0.00 40 1016.8
20230202201153 68 0.0 0.0 0.00 0.00 0.00 41 1017.2
20230202200213 67 0.0 0.0 0.00 0.00 0.00 41 1017.3
20230202195234 67 0.0 0.0 0.00 0.00 0.00 41 1017.6
20230202194254 67 0.0 0.0 0.00 0.00 0.00 42 1017.7
20230202193315 66 0.0 0.0 0.00 0.00 0.00 43 1018.1
20230202192335 65 0.0 0.0 0.00 0.00 0.00 43 1018.6
20230202190415 65 0.0 0.0 0.00 0.00 0.00 43 1019.0